Regional Weather Roundup
Issued by NWS Newport/Morehead, NC

Current Version | Previous Version | Graphics & Text | Print | Product List | Glossary Off
Versions: 1 2 3 4 5 6 7 8 9 10 11 12 13 14 15 16 17 18 19 20 21 22 23 24 25 26 27 28 29 30 31 32 33 34 35 36 37 38 39 40 41 42 43 44 45 46 47 48 49 50

000
ASUS42 KMHX 201210
RWRMHX
WEATHER ROUNDUP FOR EASTERN NORTH CAROLINA
NATIONAL WEATHER SERVICE NEWPORT/MOREHEAD CITY NC
800 AM EDT WED AUG 20 2014

NOTE: "FAIR" INDICATES FEW OR NO CLOUDS BELOW 12,000 FEET
WITH NO SIGNIFICANT WEATHER AND/OR OBSTRUCTIONS TO VISIBILITY

NCZ015>017-031-032-045>047-102-103-201300-
NORTH COAST

CITY           SKY/WX    TMP DP  RH WIND       PRES   REMARKS
EDENTON        SUNNY     72  71  97 N5        29.94R
ELIZABETH CITY CLOUDY    74  72  93 N7        29.93R
KITTY HAWK     PTSUNNY   76  73  90 NE5       29.91R
MANTEO         RAIN      75  73  94 N9        29.92R

$$

NCZ045>047-081-094-103-104-201300-
CENTRAL COAST

CITY           SKY/WX    TMP DP  RH WIND       PRES   REMARKS
FRISCO         PTSUNNY   78  73  84 VRB3      29.91R
SWANQUARTER      N/A     75 N/A N/A CALM      29.91R

$$

NCZ095-097-098-100-101-201300-
SOUTHERN COAST

CITY           SKY/WX    TMP DP  RH WIND       PRES   REMARKS
BEAUFORT       CLOUDY    76  75  97 N8        29.93R FOG
CEDAR ISLAND     N/A     79 N/A N/A NW9       29.97S
JACKSONVILLE   FOG       73  72  96 W3        29.94R VSB 1/4
NEWPORT        NOT AVBL
PINEY ISLAND   PTSUNNY   79  76  90 NW10      29.93R
WILMINGTON     SUNNY     77  73  87 NW5       29.93R


$$

NCZ011>013-027>030-043-044-078>080-089-090>093-098-201300-
COASTAL PLAIN

CITY           SKY/WX    TMP DP  RH WIND       PRES   REMARKS
AHOSKIE        CLOUDY    70  69  98 N6        29.96R VSB 3/4
CLINTON        PTSUNNY   73  73 100 CALM      29.95R FOG
ELIZABETHTOWN  MOSUNNY   74  74 100 NW3       29.94R
GOLDSBORO      CLOUDY    73  72  99 NE3       29.93R FOG
GREENVILLE     LGT RAIN  72  72 100 N5        29.97R
HAVELOCK       CLOUDY    75  73  93 NW8       29.94R FOG
KENANSVILLE    CLOUDY    73  71  96 CALM      29.96R FOG
KINSTON        FOG       72  72 100 N3        29.95R VSB 1/4
NEW BERN       CLOUDY    75  73  94 CALM      29.95R FOG
RICHLANDS      CLOUDY    72  70  94 CALM      29.94R VSB<1/4
ROANOKE RAPIDS NOT AVBL
ROCKY MOUNT    FOG       72  71  97 N6        29.96R VSB 1/2
WASHINGTON     CLOUDY    72  71  99 NW3       29.95R VSB 1/2
WHITEVILLE     SUNNY     75  73  93 CALM      29.93S

$$

AMZ130-135-150-152-154-156-158-170-250-252-270-ANZ085-086-088-633-658-670-201300-
MARINE OBSERVATIONS

STATION/POSITION TIME  TEMP    WIND        PRES    WAVE   SWELL
                       AIR SEA DIR/SP/G            HT/PER HT/PER
                 (UTC) (F)     (DEG/KT/KT) (MB)    (FT/S) (FT/S)
CHESAPEAKE LIGHT 1100   76      40/ 11/ 12 1013.9
BUOY 44014       1200   78 78   40/ 12/ 14 1012.6    3/ 6   2/ 9
DUCK             1200   77 78   30/ 13/ 14 1012.6
2E DUCK          1200                        N/A     3/ 5
OREGON INLET     1200   78 81   20/  3/  5 1012.9
BUOY 44095       1200      80                N/A     2/ 6
20E OREGON INLET NOT AVBL
HATTERAS CG      1200   79 81  340/  9/ 11 1013.4
DIAMOND BUOY     1200   78     320/  8/ 12 1012.6    2/ 7   2/ 7
CAPE LOOKOUT     1100   78     320/  7/  9 1012.4
BEAUFORT LAB     1200   75 82   10/  8/ 10 1013.1
30 SE NEW RIVER  1200   79 81  330/ 10/ 12 1012.6    4/ 7   3/ 7
5 SE WRIGHTSVILL NOT AVBL
BUOY 41002       1149   82 81  240/ 19/ 23 1014.9    6/ 6   2/10
BUOY 41004       1200   81 83  260/ 12/ 14 1013.8    4/ 5   2/ 6

$$



USA.gov is the U.S. government's official web portal to all federal, state and local government web resources and services.